#timestamp,LO_Frequency,Hit,StdDev 
1663354815.7,286047002.3,N
1663354835.6,286047002.7,N
1663354855.4,286047000.1,N
1663354875.2,286047002.2,N
1663354895.1,286047002.6,N
1663354896.0,286047002.6,N
1663354915.8,286046999.7,N
1663354935.6,286047001.9,N
1663354955.5,286047001.8,N
1663354975.3,286047004.0,Y
1663354995.2,286047002.2,P
1663355015.9,286047001.7,P
1663355035.7,286047001.6,P
1663355055.6,286047002.5,Y
1663355075.4,286046998.4,P
1663355095.2,286046998.7,N
1663355115.1,286046998.4,N
1663355116.0,286046998.4,N
1663355135.8,286046998.6,N
1663355155.7,286046996.5,N
1663355175.5,286046996.5,N
1663355195.3,286046998.0,N
1663355215.2,286046995.6,Y
1663355235.0,286046997.4,P
1663355235.9,286046997.4,P
1663355255.8,286046995.1,P
1663355275.6,286046995.7,Y
1663355295.4,286046999.0,P
1663355315.3,286046996.6,P
1663355335.1,286047000.6,N
1663355355.9,286047000.4,N
1663355375.7,286047001.2,N
1663355395.5,286046999.0,N
1663355415.4,286046996.5,N
1663355435.2,286046996.8,N
1663355455.0,286046996.8,N
1663355455.9,286046996.8,N
1663355475.8,286046997.4,N
1663355495.6,286046996.8,N
1663355515.5,286046996.9,N
1663355535.3,286046996.9,N
1663355555.1,286046995.0,Y
1663355575.9,286046998.8,P
1663355595.7,286046998.2,P
1663355615.5,286046999.0,N
1663355635.4,286046999.6,N
1663355655.2,286046997.6,Y
1663355675.1,286046996.8,P
1663355676.0,286046996.8,P
1663355695.8,286046996.8,P
1663355715.7,286046999.5,N
1663355735.5,286046996.5,Y
1663355755.3,286047000.1,P
1663355775.2,286047002.0,N
1663355795.0,286047000.0,N
1663355795.9,286047000.0,N
1663355815.7,286046998.7,N
1663355835.6,286046998.6,N
1663355855.4,286046999.3,N
1663355875.3,286046996.5,N
1663355895.1,286046996.8,N
1663355896.0,286046996.8,N
1663355915.8,286046999.2,N
1663355935.7,286047000.9,N
1663355955.5,286047000.6,N
1663355975.3,286046998.2,N
1663355995.2,286046998.5,N
1663356015.0,286046999.6,N
1663356015.9,286046999.6,N
1663356035.8,286046996.9,N
1663356055.6,286046997.4,N
1663356075.4,286046995.0,Y
1663356095.3,286046996.6,P
1663356115.1,286046999.5,N
1663356135.9,286046999.5,N
1663356155.7,286046997.0,N
1663356175.5,286046997.3,N
1663356195.4,286046997.1,N
1663356215.2,286046996.5,Y
1663356235.1,286047000.8,P
1663356236.0,286047000.8,N
1663356255.8,286047000.3,N
1663356275.6,286047001.2,N
1663356295.5,286046998.9,N
1663356315.3,286046998.7,N
1663356335.1,286046999.3,N
1663356355.9,286046998.5,N
1663356375.7,286046998.2,N
1663356395.6,286047000.8,N
1663356415.4,286046998.2,N
1663356435.2,286046998.6,N
1663356455.1,286046998.9,N
1663356456.0,286046998.9,N
1663356475.8,286046999.2,N
1663356495.6,286046999.3,N
1663356515.5,286046996.7,Y
1663356535.3,286046998.8,P
1663356555.2,286046998.9,P
1663356575.9,286046999.4,N
1663356595.7,286046998.9,Y
1663356615.6,286047001.1,P
1663356635.4,286047000.0,N
1663356655.3,286046998.1,N
1663356675.1,286047001.0,N
1663356676.0,286047001.0,N
1663356695.8,286047000.5,N
1663356715.7,286047000.7,N
1663356735.7,286047001.1,N
1663356755.5,286047002.1,N
1663356775.3,286047002.8,N
1663356795.2,286047000.1,N
1663356815.0,286047000.3,N
1663356815.9,286047000.3,N
1663356835.8,286046998.2,N
1663356855.6,286046998.1,N
1663356875.4,286046998.2,N
1663356895.3,286047000.3,N
1663356915.1,286047002.2,N
1663356935.8,286047002.5,N
1663356955.7,286047002.2,N
1663356975.5,286047002.7,N
1663356995.4,286047002.2,N
1663357015.2,286047004.2,N
1663357035.0,286047004.3,N
1663357035.9,286047004.3,N
1663357055.8,286047001.3,N
1663357075.6,286047002.0,N
1663357095.5,286047002.8,N
1663357115.3,286046999.9,N
1663357135.1,286047000.5,N
1663357155.9,286046998.1,N
1663357175.7,286046998.7,N
1663357195.6,286046998.5,N
1663357215.4,286046998.4,N
1663357235.2,286047001.2,N
1663357255.1,286046998.4,N
1663357256.0,286046998.4,N
1663357275.8,286046998.8,N
1663357295.6,286046999.3,N
1663357315.5,286046998.3,N
1663357335.3,286046998.6,N
1663357355.2,286046999.1,N
1663357375.9,286046998.4,N
1663357395.7,286046999.2,N
1663357415.6,286046997.0,N
1663357435.4,286046996.5,N
1663357455.3,286046996.6,N
1663357475.1,286046999.3,N
1663357476.0,286046999.3,N
1663357495.8,286046998.6,N
1663357515.7,286046998.5,N
1663357535.5,286046999.4,N
1663357555.3,286046998.7,N
1663357575.2,286046998.9,N
1663357595.0,286046998.8,N
1663357595.9,286046998.8,N
1663357615.8,286046998.6,N
1663357635.6,286046998.4,N
1663357655.4,286046998.6,N
1663357675.3,286046999.6,N
1663357695.1,286046999.6,N
1663357715.8,286046999.5,N
1663357735.7,286046996.8,Y
1663357755.5,286046999.3,P
1663357775.4,286046999.1,P
1663357795.2,286046996.9,P
1663357815.0,286046998.3,N
1663357815.9,286046998.3,N
1663357835.8,286046998.6,N
1663357855.6,286046998.9,N
1663357875.4,286046998.9,N
1663357895.3,286047000.7,N
1663357915.1,286046998.7,N
1663357935.9,286046998.6,N
1663357955.7,286046998.6,N
1663357975.5,286046999.0,N
1663357995.4,286046998.5,N
1663358015.2,286046999.3,N
1663358035.0,286046998.3,N
1663358036.0,286046998.3,N
1663358055.8,286046998.8,N
1663358075.6,286046999.0,N
1663358095.5,286046999.1,N
1663358115.3,286046999.5,N
1663358135.1,286046999.2,N
1663358155.9,286046999.0,N
1663358175.7,286046999.2,N
1663358195.6,286046999.1,N
1663358215.4,286046997.4,Y
1663358235.2,286046998.5,P
1663358255.1,286046999.0,P
1663358256.0,286046999.0,P
1663358275.8,286046998.8,Y
1663358295.6,286047001.2,P
1663358315.5,286047000.4,N
1663358335.3,286047000.2,N
1663358355.2,286047002.8,Y
1663358375.9,286047002.4,P
1663358395.7,286047000.4,N
